Wind_Speed
12 11 10 9 8 7 6 5 4 2 1 0 1 1 1 2 2 4 5 5 6 6 6 6 6 7 7 7 7 7 6 6 6 5 5 5 4 4 4 5 6 6
13 12 11 10 9 7 6 5 4 3 3 2 1 1 1 1 2 3 4 5 6 6 6 6 6 6 6 6 6 6 6 6 5 5 5 5 5 4 5 5 6 6
14 13 12 11 9 8 7 6 6 5 4 4 2 2 2 2 2 3 5 5 6 6 6 6 6 6 6 6 5 5 5 5 5 4 5 4 4 4 4 5 5 5
14 13 12 11 10 9 9 8 7 7 6 5 4 3 3 3 3 3 5 6 6 6 6 6 6 6 6 5 5 5 4 4 4 4 4 4 4 4 4 5 5 6
14 13 12 12 11 11 11 10 9 9 8 7 6 5 4 4 4 4 5 6 6 6 6 6 6 6 6 5 5 4 4 4 3 3 3 4 4 4 5 5 6 6
16 15 14 14 13 13 12 12 11 11 10 9 8 7 6 5 5 5 6 6 6 6 6 6 6 6 5 5 5 4 4 4 4 4 4 4 4 5 6 6 7 7
18 17 16 16 15 15 14 13 13 12 11 10 9 8 8 7 7 7 7 7 7 7 6 6 6 5 5 5 4 4 4 4 4 5 5 6 6 7 7 7 7 7
19 19 18 17 17 17 16 15 14 13 12 11 10 9 9 9 8 8 8 8 8 7 7 7 6 6 5 5 5 5 5 5 5 6 7 7 8 8 8 8 8 8
20 20 19 19 18 17 16 16 15 14 13 12 11 11 10 10 10 10 10 9 9 9 8 8 8 7 7 7 6 6 6 7 7 8 8 8 8 9 9 9 9 9
21 20 19 19 18 18 17 16 15 14 14 13 12 12 12 11 11 11 12 11 11 11 10 10 10 9 9 9 8 8 8 8 9 9 9 9 10 10 10 10 10 9
21 20 20 20 19 19 18 17 17 16 16 15 14 13 13 12 12 13 13 13 13 12 12 12 12 11 11 11 10 10 10 10 10 10 10 10 10 10 10 10 10 10
21 21 22 22 21 21 20 19 18 18 17 16 15 14 13 13 13 13 14 14 14 14 14 14 14 14 13 13 12 12 12 11 11 11 11 11 11 10 11 11 11 11
22 23 23 23 23 22 21 20 20 19 19 18 16 15 15 14 14 14 14 14 14 15 15 15 16 16 15 15 15 14 14 13 13 13 13 13 12 12 12 12 12 12
24 24 24 23 23 22 22 21 21 20 20 19 18 17 17 16 15 15 15 15 15 16 16 17 17 18 18 17 16 16 16 16 15 16 15 15 15 14 13 13 13 13
27 26 25 24 23 22 22 21 21 21 21 20 19 19 19 18 18 17 17 17 17 17 18 18 19 20 20 19 19 18 18 18 18 18 18 18 17 16 16 16 16 15
28 27 26 25 24 23 23 22 21 21 21 21 21 20 20 20 19 19 19 19 19 20 20 21 21 22 22 21 21 20 20 20 20 20 20 20 20 19 19 18 18 18
29 28 27 26 26 25 25 24 23 23 22 22 22 22 22 22 21 21 21 21 21 21 22 22 22 23 23 23 22 22 22 23 22 21 22 22 21 21 21 21 20 20
30 29 29 28 28 28 27 27 26 25 25 24 24 24 24 24 23 23 23 23 23 23 23 23 23 23 23 23 23 23 23 23 23 22 22 22 22 22 23 23 23 22
32 31 30 30 30 30 30 29 29 28 28 27 27 27 26 26 26 26 25 25 25 24 23 23 23 24 23 23 24 24 23 23 22 22 22 23 23 24 24 25 26 25
32 32 32 32 31 31 31 30 30 31 31 30 30 29 29 28 29 28 28 27 26 25 25 24 25 25 25 25 25 25 25 25 24 24 25 26 26 26 26 27 27 27
32 32 32 31 31 32 32 31 31 32 33 33 32 31 30 31 31 31 30 30 29 28 28 28 28 28 28 27 27 27 27 27 26 27 28 28 29 29 28 28 28 28
32 32 31 31 31 32 33 32 32 32 33 34 34 34 32 32 32 31 31 31 31 31 31 31 30 30 30 30 30 30 30 29 28 29 30 30 30 30 30 29 29 29
32 32 33 33 31 31 32 33 33 32 32 33 34 33 33 33 33 32 32 32 32 32 32 32 31 31 32 32 32 32 32 31 31 31 31 32 32 32 32 31 30 30
32 33 35 35 34 33 32 33 33 32 32 33 32 31 30 32 34 34 33 32 32 32 32 32 31 31 32 32 33 33 33 32 32 32 32 33 33 34 34 33 32 31
34 36 37 36 36 37 36 35 34 34 34 33 31 29 30 32 33 33 33 32 33 33 33 32 32 31 32 33 33 34 34 34 34 34 34 34 35 35 35 35 34 33
37 39 40 39 38 40 40 39 38 36 35 35 32 31 32 33 34 34 34 34 34 35 34 33 32 31 31 32 33 35 36 35 35 35 35 35 35 36 35 35 35 34
Wind_Direction
177 177 178 181 182 179 174 176 185 192 209 227 109 108 91 93 124 144 149 148 146 147 151 157 165 171 176 181 185 188 193 200 205 214 224 235 244 252 259 264 270 278
183 185 188 190 192 191 191 198 209 218 232 247 248 178 184 164 152 162 168 167 162 157 155 159 165 170 173 176 181 186 193 201 209 218 226 234 242 250 259 266 272 279
190 192 194 197 201 206 210 216 222 232 242 253 261 241 227 223 191 179 179 180 179 173 167 166 167 168 168 170 173 178 183 190 198 210 219 225 234 241 249 259 268 274
200 202 203 205 211 217 222 229 235 240 247 254 257 252 244 239 216 197 188 186 186 182 176 173 171 170 171 173 174 174 178 183 188 198 210 219 229 235 239 244 251 259
211 214 216 217 222 226 230 236 243 249 253 255 255 254 252 248 233 213 200 194 192 187 181 178 176 174 174 178 181 182 186 194 200 209 219 227 233 239 241 242 244 251
216 220 223 226 230 234 237 240 246 251 254 255 254 252 251 249 238 222 211 205 201 197 192 188 186 185 184 185 187 190 196 204 211 218 229 238 243 247 249 250 250 254
220 223 227 230 234 239 242 244 247 250 251 251 249 248 249 249 243 229 218 212 208 204 203 204 204 204 203 204 207 212 219 225 231 235 237 242 246 250 253 254 256 259
223 226 229 232 236 240 242 244 246 247 246 245 243 244 247 248 245 238 228 221 216 211 210 212 216 219 221 223 226 233 238 243 248 250 251 251 251 252 255 256 257 260
221 226 229 232 235 238 240 242 242 242 240 240 241 243 245 245 242 239 234 229 225 220 217 216 218 223 227 231 234 238 242 247 251 255 258 259 258 258 260 261 262 265
217 221 225 228 231 232 234 236 236 237 237 240 243 244 245 243 240 237 235 233 231 229 227 226 226 229 232 235 239 242 244 248 252 256 259 262 264 265 266 268 270 272
216 218 221 224 226 227 229 231 232 235 238 241 243 244 245 243 240 237 234 234 234 234 235 235 235 236 239 241 244 246 248 250 254 258 260 261 264 266 268 272 275 277
221 222 224 224 225 225 227 230 232 235 238 240 240 241 242 243 242 239 236 235 236 237 239 240 241 242 243 244 246 248 249 251 254 258 261 262 263 265 268 271 275 277
227 228 229 229 228 228 228 231 233 235 235 236 237 238 239 239 240 240 240 239 238 238 240 242 243 245 245 246 248 250 252 254 255 257 260 262 262 263 264 268 271 274
228 230 233 234 234 233 233 234 235 236 235 235 236 236 237 237 236 237 238 239 240 240 241 242 244 245 247 248 249 252 255 256 257 259 261 263 265 264 265 266 268 271
227 229 232 235 237 237 238 238 237 237 237 236 236 236 236 236 236 237 237 237 238 239 240 241 243 245 247 249 250 252 255 257 259 261 262 264 266 266 266 267 268 270
229 230 232 234 237 238 238 238 238 238 237 237 237 237 237 237 237 238 238 239 238 238 239 240 242 245 247 249 251 252 255 258 260 263 266 267 267 267 267 268 269 270
236 234 235 236 238 239 240 240 239 239 238 238 238 238 238 238 238 239 240 240 241 240 241 241 243 246 248 250 252 253 255 257 259 261 264 267 269 270 269 268 269 270
240 239 239 239 239 240 241 241 241 241 241 241 240 239 239 239 239 240 241 241 243 244 245 246 247 249 251 253 254 255 257 260 261 262 263 265 268 269 269 268 266 266
238 239 240 241 242 243 243 244 243 243 243 243 243 242 241 242 242 242 243 243 245 246 248 251 254 255 256 257 258 258 259 261 263 265 265 264 264 264 266 266 265 265
238 238 239 239 241 243 245 248 248 248 246 244 244 245 246 247 247 248 248 249 250 251 252 253 255 256 257 257 259 260 260 260 262 264 266 265 265 264 264 264 264 265
242 242 242 242 243 243 243 245 248 251 250 248 246 246 247 249 252 254 255 256 256 256 256 256 256 257 258 259 260 262 262 262 262 263 263 264 264 265 266 265 265 265
243 244 243 243 245 246 246 244 244 246 250 252 251 249 248 248 251 254 257 259 260 259 258 258 259 260 261 262 262 263 264 264 264 263 263 263 263 265 266 266 265 266
245 246 244 241 243 248 251 250 247 246 247 250 252 252 252 252 251 251 252 254 257 258 258 259 259 260 261 262 262 263 264 264 265 265 265 266 266 266 266 266 266 267
244 248 247 244 244 248 251 251 251 248 246 246 248 251 254 256 255 253 253 253 253 255 256 256 257 258 259 260 261 262 263 263 264 264 265 266 266 267 267 266 266 266
240 245 247 246 246 249 250 250 249 248 247 246 247 249 253 257 258 256 255 254 253 253 254 255 255 257 259 260 262 262 263 263 263 263 264 265 265 266 267 268 267 266
239 242 244 245 247 249 250 250 249 248 248 247 247 247 248 253 258 257 255 255 255 255 255 256 257 259 261 263 265 266 266 265 264 263 263 264 265 266 267 268 268 267
Height
5942 5943 5944 5945 5946 5947 5948 5948 5949 5950 5950 5950 5951 5951 5951 5952 5952 5953 5953 5954 5954 5954 5955 5955 5956 5956 5956 5956 5957 5957 5958 5958 5958 5959 5959 5959 5960 5960 5960 5960 5960 5960
5942 5943 5944 5945 5946 5947 5948 5948 5949 5950 5950 5951 5951 5951 5952 5952 5952 5953 5953 5954 5954 5954 5955 5956 5956 5956 5956 5956 5957 5957 5957 5958 5958 5959 5959 5959 5959 5960 5960 5960 5960 5960
5942 5943 5944 5945 5946 5947 5947 5948 5949 5949 5950 5950 5951 5951 5952 5952 5952 5953 5953 5953 5954 5954 5955 5955 5956 5956 5956 5956 5957 5957 5957 5958 5958 5958 5959 5959 5959 5960 5960 5960 5960 5960
5942 5943 5944 5945 5946 5946 5947 5948 5948 5949 5949 5950 5950 5951 5951 5952 5952 5952 5953 5953 5954 5954 5954 5955 5955 5956 5956 5956 5956 5957 5957 5957 5958 5958 5958 5959 5959 5959 5959 5959 5959 5959
5941 5942 5943 5944 5945 5946 5946 5947 5948 5949 5949 5949 5950 5950 5950 5951 5951 5952 5952 5953 5953 5954 5954 5954 5955 5955 5956 5956 5956 5957 5957 5957 5957 5958 5958 5958 5959 5959 5959 5959 5959 5958
5940 5941 5942 5943 5944 5945 5946 5947 5947 5948 5949 5949 5949 5949 5950 5950 5950 5951 5951 5952 5952 5953 5953 5954 5954 5955 5955 5956 5956 5956 5956 5957 5957 5957 5958 5958 5958 5958 5958 5958 5958 5958
5939 5940 5941 5942 5943 5944 5945 5946 5946 5947 5948 5948 5948 5949 5949 5949 5950 5950 5950 5951 5952 5952 5953 5953 5954 5954 5955 5955 5955 5956 5956 5956 5956 5957 5957 5957 5958 5958 5958 5957 5957 5957
5938 5939 5940 5941 5942 5943 5944 5945 5945 5946 5947 5947 5948 5948 5949 5949 5949 5949 5950 5950 5951 5951 5952 5952 5953 5954 5954 5954 5955 5955 5955 5955 5956 5956 5956 5957 5957 5957 5957 5957 5956 5956
5936 5937 5939 5940 5940 5941 5942 5943 5944 5945 5945 5946 5947 5947 5948 5948 5948 5949 5949 5949 5950 5950 5951 5951 5952 5952 5953 5953 5953 5954 5954 5954 5955 5955 5955 5955 5956 5956 5956 5956 5955 5955
5934 5935 5937 5938 5939 5940 5941 5941 5942 5943 5944 5945 5945 5946 5946 5947 5947 5948 5948 5948 5949 5949 5950 5950 5951 5951 5951 5952 5952 5953 5953 5953 5953 5954 5954 5954 5954 5954 5954 5954 5954 5954
5932 5933 5934 5935 5936 5937 5938 5940 5941 5941 5942 5943 5944 5944 5945 5945 5946 5947 5947 5947 5948 5948 5949 5949 5950 5950 5950 5951 5951 5951 5952 5952 5952 5952 5952 5952 5952 5952 5953 5952 5952 5952
5931 5931 5932 5933 5934 5935 5936 5937 5938 5939 5940 5941 5942 5942 5943 5944 5944 5945 5946 5946 5947 5947 5948 5948 5949 5949 5949 5949 5950 5950 5950 5950 5950 5950 5950 5950 5950 5951 5951 5951 5951 5951
5929 5929 5930 5931 5932 5933 5934 5935 5936 5937 5938 5939 5940 5941 5941 5942 5942 5943 5944 5945 5945 5946 5946 5947 5947 5947 5948 5948 5948 5948 5948 5949 5949 5949 5949 5949 5949 5949 5949 5949 5949 5949
5926 5927 5928 5929 5930 5931 5933 5934 5934 5935 5936 5937 5938 5938 5939 5940 5940 5941 5942 5942 5943 5944 5944 5945 5945 5946 5946 5946 5946 5947 5947 5947 5947 5947 5947 5947 5947 5947 5947 5947 5947 5947
5924 5925 5926 5927 5929 5930 5931 5932 5933 5933 5934 5935 5936 5936 5937 5937 5938 5939 5939 5940 5940 5941 5942 5942 5942 5943 5943 5944 5944 5945 5945 5945 5945 5945 5946 5946 5946 5946 5946 5946 5945 5945
5922 5923 5925 5926 5927 5928 5929 5930 5931 5932 5932 5933 5934 5934 5934 5935 5936 5936 5937 5937 5937 5938 5938 5939 5939 5940 5940 5941 5942 5942 5943 5943 5943 5944 5944 5944 5944 5944 5944 5944 5944 5943
5921 5922 5923 5924 5925 5926 5927 5928 5929 5929 5930 5931 5932 5932 5932 5932 5933 5933 5934 5934 5934 5935 5936 5936 5937 5937 5937 5938 5939 5940 5940 5941 5941 5942 5942 5942 5942 5942 5942 5942 5942 5941
5919 5920 5921 5922 5922 5923 5924 5925 5926 5927 5928 5928 5929 5929 5929 5930 5930 5931 5931 5931 5932 5932 5933 5933 5934 5934 5935 5936 5937 5937 5938 5938 5938 5939 5940 5940 5940 5940 5940 5940 5940 5940
5915 5916 5917 5918 5919 5920 5921 5922 5923 5924 5924 5925 5925 5926 5927 5928 5928 5928 5928 5929 5929 5930 5931 5931 5932 5932 5933 5934 5934 5935 5935 5936 5936 5936 5936 5937 5937 5937 5937 5938 5938 5937
5912 5913 5914 5915 5916 5917 5918 5920 5921 5922 5922 5922 5922 5923 5924 5925 5925 5926 5926 5927 5927 5928 5928 5929 5930 5930 5930 5930 5931 5931 5932 5933 5933 5933 5933 5933 5933 5933 5934 5935 5935 5934
5909 5910 5911 5912 5912 5913 5914 5915 5917 5918 5919 5919 5919 5919 5920 5921 5922 5923 5924 5924 5925 5925 5925 5926 5926 5926 5926 5927 5928 5928 5929 5929 5930 5930 5930 5930 5930 5930 5930 5930 5930 5930
5904 5906 5907 5908 5909 5910 5910 5911 5911 5913 5914 5915 5916 5916 5916 5917 5917 5919 5920 5921 5922 5922 5922 5922 5922 5923 5923 5923 5924 5924 5925 5925 5926 5926 5926 5926 5926 5926 5926 5926 5926 5926
5900 5902 5903 5905 5905 5906 5907 5907 5908 5909 5910 5911 5912 5913 5913 5913 5913 5914 5915 5916 5917 5917 5918 5918 5919 5919 5919 5919 5919 5920 5920 5921 5922 5922 5922 5923 5922 5922 5922 5922 5922 5923
5897 5898 5900 5901 5901 5901 5902 5904 5905 5906 5906 5906 5907 5908 5909 5910 5910 5910 5911 5912 5912 5912 5913 5914 5914 5914 5914 5914 5915 5915 5915 5916 5917 5917 5918 5918 5918 5918 5918 5918 5918 5919
5894 5896 5897 5897 5897 5897 5898 5899 5901 5901 5901 5902 5903 5904 5904 5905 5907 5908 5908 5908 5907 5907 5908 5909 5909 5910 5910 5910 5910 5910 5911 5912 5912 5913 5913 5913 5913 5914 5914 5914 5915 5915
5889 5892 5892 5891 5892 5893 5894 5895 5896 5897 5898 5899 5901 5901 5900 5901 5904 5904 5904 5903 5903 5903 5904 5906 5906 5906 5906 5906 5906 5906 5906 5907 5908 5908 5908 5909 5908 5909 5909 5910 5910 5910